Houghton Lake, MI

1:12 PM EDT on July 27, 2017 (GMT -0400)
Roscommon County

Weather History for KHTL - October, 2012

Change the Weather History Date:

Tuesday, October 23, 2012

  Actual Average Record
Temperature  
Mean Temperature 55 °F 43 °F  
Max Temperature 57 °F 53 °F 81 °F (1963)
Min Temperature 52 °F 34 °F 16 °F (1969)
Degree Days  
Heating Degree Days 10 22  
Month to date heating degree days 375 412  
Since 1 July heating degree days 678 793  
Cooling Degree Days 0 0  
Month to date cooling degree days 0 0  
Year to date cooling degree days 547 285  
Growing Degree Days 3 (Base 50)    
Moisture  
Dew Point 53 °F    
Average Humidity 97    
Maximum Humidity 100    
Minimum Humidity 93    
Precipitation  
Precipitation 0.00 in 0.08 in 1.84 in (1959)
Month to date precipitation 3.01 1.93  
Year to date precipitation 29.14 24.15  
Snow  
Snow 0.00 in 0.00 in 1.60 in (1981)
Month to date snowfall T 0.2  
Since 1 July snowfall T 0.2  
Snow Depth 0.00 in    
Sea Level Pressure  
Sea Level Pressure 29.98 in    
Wind  
Wind Speed 8 mph (ENE)    
Max Wind Speed 17 mph    
Max Gust Speed 21 mph    
Visibility 3 miles    
Events Rain    
T = Trace of Precipitation, MM = Missing Value Source: NWS Daily Summary

Daily Weather History Graph

Daily Weather History Graph

Search for Another Location

Airport or City:

Trip Planner

Search our weather history database for the weather conditions in past years. The results will help you decide how hot, cold, wet, or windy it might be!

Date:

Astronomy

Oct. 23, 2012 Rise Set
Actual Time 8:04 AM EDT 6:40 PM EDT
Civil Twilight 7:34 AM EDT 7:10 PM EDT
Nautical Twilight 7:00 AM EDT 7:44 PM EDT
Astronomical Twilight 6:27 AM EDT 8:17 PM EDT
Moon 3:35 PM EDT (10/23) 1:42 AM EDT (10/23)
Length of Visible Light 11h 35m
Length of Day
10h 36m
Waxing Gibbous, 66% of the Moon is Illuminated
Oct 23
Waxing Gibbous
Oct 29
Full
Nov 6
Last Quarter
Nov 13
New
Nov 20
First Quarter

Hourly Weather History & Observations

Time (EDT) Temp. Dew Point Humidity Pressure Visibility Wind Dir Wind Speed Gust Speed Precip Events Conditions
12:10 AM 55.4 °F 55.4 °F 100% 29.96 in 3.0 mi East 3.5 mph - N/A   Overcast
12:19 AM 55.4 °F 55.4 °F 100% 29.96 in 4.0 mi ENE 3.5 mph - N/A   Overcast
12:53 AM 55.9 °F 55.0 °F 97% 29.97 in 3.0 mi ENE 5.8 mph - N/A   Overcast
1:50 AM 57.2 °F 55.4 °F 94% 29.95 in 3.0 mi East 4.6 mph - N/A   Overcast
1:53 AM 57.0 °F 55.0 °F 93% 29.95 in 3.0 mi East 5.8 mph - N/A   Overcast
2:12 AM 57.2 °F 55.4 °F 94% 29.94 in 3.0 mi ENE 6.9 mph - N/A   Overcast
2:25 AM 57.2 °F 55.4 °F 94% 29.94 in 3.0 mi ENE 4.6 mph - N/A   Overcast
2:53 AM 57.0 °F 55.0 °F 93% 29.94 in 3.0 mi ENE 3.5 mph - N/A   Overcast
3:14 AM 57.2 °F 55.4 °F 94% 29.94 in 2.5 mi NE 4.6 mph - N/A   Overcast
3:53 AM 55.9 °F 55.0 °F 97% 29.93 in 1.8 mi East 5.8 mph - 0.01 in Rain Light Rain
4:05 AM 55.4 °F 55.4 °F 100% 29.93 in 2.0 mi ENE 4.6 mph - 0.00 in   Overcast
4:14 AM 55.4 °F 55.4 °F 100% 29.93 in 2.0 mi ENE 5.8 mph - 0.00 in   Overcast
4:34 AM 55.4 °F 55.4 °F 100% 29.93 in 1.5 mi NE 8.1 mph - 0.00 in   Overcast
4:45 AM 55.4 °F 55.4 °F 100% 29.93 in 1.8 mi ENE 9.2 mph - 0.00 in   Overcast
4:53 AM 55.9 °F 54.0 °F 93% 29.94 in 2.5 mi ENE 6.9 mph - 0.00 in   Overcast
5:05 AM 55.4 °F 53.6 °F 94% 29.93 in 3.0 mi ENE 6.9 mph - N/A   Overcast
5:53 AM 55.4 °F 53.6 °F 94% 29.95 in 5.0 mi NE 8.1 mph - N/A   Overcast
6:53 AM 54.0 °F 52.0 °F 93% 29.97 in 5.0 mi NE 6.9 mph - N/A   Overcast
7:10 AM 53.6 °F 51.8 °F 94% 29.98 in 2.0 mi ENE 6.9 mph - N/A   Overcast
7:23 AM 53.6 °F 51.8 °F 94% 29.98 in 1.8 mi NE 5.8 mph - N/A   Overcast
7:37 AM 53.6 °F 51.8 °F 94% 29.98 in 2.5 mi NE 4.6 mph - N/A   Overcast
7:48 AM 53.6 °F 51.8 °F 94% 29.98 in 4.0 mi NE 6.9 mph - N/A   Overcast
7:53 AM 54.0 °F 52.0 °F 93% 29.99 in 3.0 mi NE 6.9 mph - N/A   Overcast
8:31 AM 53.6 °F 51.8 °F 94% 29.98 in 2.0 mi NE 8.1 mph - N/A   Overcast
8:38 AM 53.6 °F 51.8 °F 94% 29.97 in 1.8 mi ENE 12.7 mph - N/A   Overcast
8:53 AM 54.0 °F 52.0 °F 93% 29.98 in 1.8 mi ENE 11.5 mph - N/A   Overcast
9:03 AM 53.6 °F 51.8 °F 94% 29.97 in 2.0 mi ENE 11.5 mph - N/A   Overcast
9:10 AM 53.6 °F 51.8 °F 94% 29.96 in 2.5 mi ENE 12.7 mph - N/A   Overcast
9:31 AM 53.6 °F 51.8 °F 94% 29.96 in 4.0 mi ENE 12.7 mph - N/A   Overcast
9:53 AM 54.0 °F 52.0 °F 93% 29.98 in 5.0 mi ENE 9.2 mph - N/A   Overcast
10:53 AM 54.0 °F 52.0 °F 93% 29.99 in 5.0 mi ENE 11.5 mph - N/A   Overcast
11:53 AM 55.9 °F 53.1 °F 90% 30.02 in 8.0 mi East 5.8 mph - N/A   Overcast
12:10 PM 55.4 °F 53.6 °F 94% 30.02 in 9.0 mi East 5.8 mph - N/A   Overcast
12:53 PM 55.9 °F 53.1 °F 90% 30.02 in 6.0 mi ENE 5.8 mph - N/A   Overcast
1:53 PM 55.9 °F 54.0 °F 93% 30.00 in 3.0 mi East 5.8 mph - N/A   Overcast
2:53 PM 55.0 °F 53.1 °F 93% 29.99 in 2.5 mi ENE 8.1 mph - N/A   Overcast
3:08 PM 55.4 °F 53.6 °F 94% 29.98 in 1.5 mi ENE 9.2 mph - N/A   Overcast
3:19 PM 55.4 °F 53.6 °F 94% 29.98 in 1.8 mi NE 8.1 mph - N/A   Overcast
3:30 PM 55.4 °F 53.6 °F 94% 29.98 in 1.5 mi ENE 8.1 mph - N/A   Overcast
3:44 PM 53.6 °F 53.6 °F 100% 29.98 in 1.0 mi ENE 8.1 mph - N/A   Overcast
3:53 PM 54.0 °F 53.1 °F 97% 29.99 in 1.2 mi NE 6.9 mph - N/A   Overcast
4:01 PM 53.6 °F 53.6 °F 100% 29.97 in 1.0 mi ENE 8.1 mph - N/A   Overcast
4:12 PM 53.6 °F 53.6 °F 100% 29.97 in 1.8 mi ENE 8.1 mph - N/A   Overcast
4:17 PM 53.6 °F 53.6 °F 100% 29.97 in 3.0 mi ENE 9.2 mph - N/A   Overcast
4:34 PM 53.6 °F 51.8 °F 94% 29.97 in 2.0 mi ENE 10.4 mph - N/A   Overcast
4:51 PM 53.6 °F 51.8 °F 94% 29.96 in 3.0 mi ENE 9.2 mph - N/A   Overcast
4:53 PM 54.0 °F 52.0 °F 93% 29.97 in 3.0 mi ENE 8.1 mph - N/A   Overcast
5:03 PM 53.6 °F 53.6 °F 100% 29.97 in 2.5 mi ENE 6.9 mph - N/A   Overcast
5:14 PM 53.6 °F 51.8 °F 94% 29.97 in 3.0 mi ENE 9.2 mph - N/A   Overcast
5:49 PM 53.6 °F 51.8 °F 94% 29.99 in 6.0 mi East 8.1 mph - N/A   Overcast
5:53 PM 54.0 °F 52.0 °F 93% 30.00 in 6.0 mi East 9.2 mph - N/A   Overcast
6:53 PM 53.1 °F 52.0 °F 96% 30.01 in 2.5 mi East 9.2 mph - N/A   Overcast
7:09 PM 53.6 °F 51.8 °F 94% 30.00 in 2.5 mi East 6.9 mph - N/A   Overcast
7:21 PM 53.6 °F 51.8 °F 94% 30.00 in 3.0 mi East 10.4 mph - N/A   Overcast
7:28 PM 53.6 °F 51.8 °F 94% 30.00 in 2.0 mi East 9.2 mph - N/A   Overcast
7:53 PM 52.0 °F 51.1 °F 97% 30.02 in 2.5 mi East 11.5 mph - N/A   Overcast
8:05 PM 51.8 °F 51.8 °F 100% 30.01 in 1.5 mi East 11.5 mph - N/A   Overcast
8:19 PM 51.8 °F 51.8 °F 100% 30.00 in 1.8 mi East 11.5 mph - N/A   Overcast
8:26 PM 51.8 °F 51.8 °F 100% 30.00 in 2.0 mi East 9.2 mph - N/A   Overcast
8:53 PM 52.0 °F 51.1 °F 97% 30.01 in 3.0 mi ENE 9.2 mph - N/A   Overcast
9:53 PM 52.0 °F 51.1 °F 97% 30.02 in 4.0 mi ESE 8.1 mph - N/A   Overcast
10:30 PM 51.8 °F 51.8 °F 100% 30.01 in 2.5 mi East 8.1 mph - N/A   Overcast
10:53 PM 52.0 °F 51.1 °F 97% 30.03 in 1.8 mi East 6.9 mph - N/A   Overcast
11:02 PM 51.8 °F 51.8 °F 100% 30.02 in 1.5 mi East 5.8 mph - N/A   Overcast
11:42 PM 51.8 °F 51.8 °F 100% 30.01 in 1.0 mi East 6.9 mph - N/A   Overcast
11:53 PM 52.0 °F 51.1 °F 97% 30.02 in 1.0 mi East 6.9 mph - N/A   Overcast